Tracking 20628 objects as of 6-Apr-2020
HD Live streaming from Space Station
objects crossing your sky now

COSMOS 1828

Track COSMOS 1828 now!
10-day predictions
COSMOS 1828 is classified as:


NORAD ID: 17583
Int'l Code: 1987-026B
Perigee: 1,389.8 km
Apogee: 1,419.3 km
Inclination: 82.6 °
Period: 113.7 minutes
Semi major axis: 7775 km
RCS: 1.1912 m2 (large)
Launch date: March 13, 1987
Source: Commonwealth of Independent States (former USSR) (CIS)
Launch site: PLESETSK MISSILE AND SPACE COMPLEX (PKMTR)
aabbcc
Your satellite tracking list
Your tracking list is empty




NASA's NSSDC Master Catalog

Two Line Element Set (TLE):
1 17583U 87026B   20096.69696403 +.00000014 +00000-0 +18812-4 0  9996
2 17583 082.5700 183.0551 0018982 190.3461 328.8287 12.66211694528071
Source of the keplerian elements: AFSPC